TimeCDT,TemperatureF,Dew PointF,Humidity,Sea Level PressureIn,VisibilityMPH,Wind Direction,Wind SpeedMPH,Gust SpeedMPH,PrecipitationIn,Events,Conditions,WindDirDegrees,DateUTC
12:53 AM,70.0,59.0,68,29.87,10.0,ESE,9.2,-,N/A,,Clear,120,2013-10-02 05:53:00
1:53 AM,68.0,59.0,73,29.87,10.0,Calm,Calm,-,N/A,,Clear,0,2013-10-02 06:53:00
2:53 AM,68.0,59.0,73,29.87,10.0,SE,4.6,-,N/A,,Clear,130,2013-10-02 07:53:00
3:53 AM,66.0,60.1,81,29.86,10.0,SE,4.6,-,N/A,,Clear,130,2013-10-02 08:53:00
4:53 AM,66.9,61.0,81,29.85,10.0,SE,8.1,-,N/A,,Clear,140,2013-10-02 09:53:00
5:53 AM,68.0,63.0,84,29.86,10.0,SSE,10.4,-,N/A,,Clear,160,2013-10-02 10:53:00
6:53 AM,68.0,64.0,87,29.86,10.0,South,10.4,-,N/A,,Clear,170,2013-10-02 11:53:00
7:53 AM,68.0,64.9,90,29.87,9.0,South,13.8,-,N/A,,Clear,180,2013-10-02 12:53:00
8:53 AM,72.0,66.9,84,29.89,10.0,South,19.6,23.0,N/A,,Clear,180,2013-10-02 13:53:00
9:28 AM,71.6,66.2,83,29.95,10.0,South,20.7,28.8,N/A,,Scattered Clouds,170,2013-10-02 14:28:00
9:37 AM,71.6,68.0,88,29.95,9.0,South,23.0,-,N/A,,Mostly Cloudy,180,2013-10-02 14:37:00
9:53 AM,72.0,68.0,87,29.90,9.0,South,24.2,28.8,N/A,,Overcast,170,2013-10-02 14:53:00
10:53 AM,73.9,69.1,85,29.91,9.0,South,21.9,-,N/A,,Overcast,180,2013-10-02 15:53:00
11:09 AM,75.2,69.8,83,29.95,9.0,South,19.6,-,N/A,,Overcast,170,2013-10-02 16:09:00
11:41 AM,75.2,69.8,83,29.95,10.0,South,21.9,-,N/A,,Overcast,170,2013-10-02 16:41:00
11:53 AM,77.0,69.1,76,29.90,10.0,South,21.9,27.6,N/A,,Overcast,170,2013-10-02 16:53:00
12:53 PM,81.0,68.0,65,29.88,10.0,South,20.7,-,N/A,,Mostly Cloudy,180,2013-10-02 17:53:00
1:33 PM,82.4,66.2,58,29.90,10.0,South,20.7,-,N/A,,Mostly Cloudy,170,2013-10-02 18:33:00
1:53 PM,84.0,68.0,58,29.84,10.0,South,20.7,-,N/A,,Mostly Cloudy,170,2013-10-02 18:53:00
2:53 PM,86.0,66.9,53,29.81,10.0,South,20.7,26.5,N/A,,Scattered Clouds,170,2013-10-02 19:53:00
3:53 PM,88.0,66.0,48,29.79,10.0,South,21.9,27.6,N/A,,Scattered Clouds,170,2013-10-02 20:53:00
4:53 PM,87.1,64.0,46,29.78,10.0,South,25.3,31.1,N/A,,Partly Cloudy,180,2013-10-02 21:53:00
5:53 PM,86.0,63.0,46,29.78,10.0,South,20.7,29.9,N/A,,Clear,180,2013-10-02 22:53:00
6:53 PM,82.9,63.0,51,29.78,10.0,South,16.1,-,N/A,,Clear,180,2013-10-02 23:53:00
7:53 PM,80.1,64.0,58,29.80,10.0,South,15.0,-,N/A,,Clear,170,2013-10-03 00:53:00
8:53 PM,78.1,63.0,60,29.81,10.0,South,11.5,-,N/A,,Clear,170,2013-10-03 01:53:00
9:53 PM,75.9,64.0,67,29.82,10.0,SSE,15.0,-,N/A,,Clear,150,2013-10-03 02:53:00
10:53 PM,75.9,64.9,69,29.81,10.0,SSE,19.6,-,N/A,,Clear,160,2013-10-03 03:53:00
11:53 PM,75.9,66.0,71,29.81,10.0,South,23.0,27.6,N/A,,Clear,170,2013-10-03 04:53:00